[Iaude] MPEC B67: 2024 BP1 [a=1.45,e=0.36,i=3.1,H=24.7]

mpec at marsden.cfa.harvard.edu mpec at marsden.cfa.harvard.edu
Sat Jan 20 09:39:59 EST 2024


M.P.E.C. 2024-B67                              Issued 2024 January 20, 14:37 UT

     The Minor Planet Electronic Circulars contain information on unusual
         minor planets, routine data on comets and natural satellites,
         and occasional editorial announcements.  They are published
    on behalf of Division F of the International Astronomical Union by the
          Minor Planet Center, Smithsonian Astrophysical Observatory,
                          Cambridge, MA 02138, U.S.A.
			  
             Prepared using the Tamkin Foundation Computer Network

                              MPC at CFA.HARVARD.EDU
            URL https://www.minorplanetcenter.net/    ISSN 1523-6714

                                    2024 BP1                                    


Observations:
     K24B01P*1C2024 01 18.26513305 42 09.882+54 27 08.46         20.56GVEB067G96
     K24B01P 1C2024 01 18.27032205 42 07.816+54 27 26.68         20.52GVEB067G96
     K24B01P 1C2024 01 18.27553105 42 05.717+54 27 44.82         20.11GVEB067G96
     K24B01P 1C2024 01 18.28071305 42 03.614+54 28 03.29         20.24GVEB067G96
     K24B01P KC2024 01 18.90047005 38 36.821+55 06 51.34         20.8 GVEB067J95
     K24B01P KC2024 01 18.91547605 38 30.581+55 07 49.84         20.0 GVEB067J95
     K24B01P KC2024 01 18.92910305 38 24.766+55 08 43.30         20.5 GVEB067J95
     K24B01P KC2024 01 18.94286905 38 18.924+55 09 36.76         20.1 GVEB067J95
     K24B01P KB2024 01 19.00956405 37 49.99 +55 14 01.4          20.3 GXEB067I93
     K24B01P KB2024 01 19.02156405 37 44.90 +55 14 45.1          20.6 GXEB067I93
     K24B01P 1C2024 01 19.20532 05 36 35.46 +55 25 17.4          19.2 VXEB067033
     K24B01P 1C2024 01 19.20642 05 36 35.15 +55 25 21.1          19.1 VXEB067033
     K24B01P 1C2024 01 19.20752 05 36 34.73 +55 25 25.2          19.1 VXEB067033
     K24B01P 1C2024 01 19.20899 05 36 34.23 +55 25 29.9          19.9 VXEB067033
     K24B01P 1C2024 01 19.21028 05 36 33.85 +55 25 35.2          19.2 VXEB067033
     K24B01P 1C2024 01 19.74956 05 33 18.38 +56 04 09.4          20.9 VXEB067033
     K24B01P 1C2024 01 19.74996 05 33 18.23 +56 04 11.2          20.9 VXEB067033
     K24B01P 1C2024 01 19.75042 05 33 18.03 +56 04 13.2          21.0 VXEB067033
     K24B01P 1C2024 01 19.75105 05 33 17.78 +56 04 15.8          20.8 VXEB067033
     K24B01P KC2024 01 20.11580805 30 39.14 +56 31 12.8          20.8 GVEB067H21
     K24B01P KC2024 01 20.11860505 30 37.68 +56 31 25.3          21.1 GVEB067H21
     K24B01P KC2024 01 20.12140305 30 36.23 +56 31 37.8          20.6 GVEB067H21
     K24B01P KC2024 01 20.12438705 30 34.66 +56 31 51.2          20.7 GVEB067H21

Observer details:
033 Karl Schwarzschild Observatory, Tautenburg.  Observers S. Melnikov, C.
    Hogner, F. Ludwig, M. Hartmann, B. Stecklum.  Measurer B. Stecklum.
    1.34-m f/3 Schmidt + CCD.
G96 Mt. Lemmon Survey.  Observer J. K. Hogan.  Measurers T. Beuden, V. F.
    Carvajal, D. Fay, J. B. Fazekas, D. C. Fuls, A. R. Gibbs, A. D. Grauer, H.
    Groeller, J. K. Hogan, R. A. Kowalski, S. M. Larson, G. J. Leonard, D.
    Rankin, R. L. Seaman, F. C. Shelly, K. W. Wierzchos.  1.5-m reflector +
    10K CCD.
H21 Astronomical Research Observatory, Westfield.  Observer R. Holmes.
    Measurers T. Linder, R. Holmes, L. Horn.  0.76-m f/3.0 astrograph + CCD.
I93 St Pardon de Conques.  Observer F. Losse.  0.40-m f/3.7 reflector + CMO.
J95 Great Shefford.  Observer P. Birtwhistle.  0.41-m f/6.3 Schmidt-Cassegrain
    + CCD.

Orbital elements:
2024 BP1                                                 Earth MOID = 0.0220 AU
Epoch 2023 Sept. 13.0 TT = JDT 2460200.5                Veres                   
M 262.62257              (2000.0)            P               Q                  
n   0.56677073     Peri.  195.06797     -0.98099751     -0.19249814             
a   1.4460982      Node   333.79583     +0.18320764     -0.87790752             
e   0.3601779      Incl.    3.14889     +0.06386582     -0.43843226             
P   1.74           H   24.74          G   0.15           U   8                  
Residuals in seconds of arc
240118 G96  0.2-  0.2+    240119 I93  0.2+  0.0     240119 033  0.2-  0.2-
240118 G96  0.0   0.1+    240119 I93  0.1-  0.0     240119 033  0.1-  0.3-
240118 G96  0.0   0.2-    240119 033  0.0   0.2-    240119 033  0.2+  0.5-
240118 G96  0.2-  0.1+    240119 033  0.6+  0.5-    240120 H21  0.1+  0.0
240118 J95  0.3+  0.3+    240119 033  0.2+  0.4-    240120 H21  0.0   0.1-
240118 J95  0.9+  0.2-    240119 033  0.2+  1.1-    240120 H21  0.0   0.0
240118 J95  0.2+  0.1+    240119 033  0.8+  0.5-    240120 H21  0.1-  0.1+
240118 J95  0.2-  0.4+    240119 033  0.5-  0.2-

Ephemeris:
2024 BP1                 a,e,i = 1.45, 0.36, 3                   q = 0.9252
Date    TT    R. A. (2000) Decl.     Delta      r    Elong.  Phase     V
2023 12 21    06 35 26.3 +39 54 11   0.2025  1.1774   161.3    15.5    22.5
...
2024 01 05    06 21 03.7 +45 28 22   0.1249  1.0985   155.9    21.4    21.5
...
2024 01 13    06 03 24.2 +50 00 03   0.08961 1.0593   146.4    30.9    21.0
...
2024 01 19    05 38 00.4 +55 13 11   0.06531 1.0320   136.2    41.2    20.5
2024 01 20    05 31 26.9 +56 22 04   0.06143 1.0277   134.2    43.4    20.4
2024 01 21    05 23 41.6 +57 37 40   0.05760 1.0234   131.9    45.7    20.3
...
2024 01 27    03 30 19.5 +67 45 26   0.03628 0.9991   112.6    65.5    19.9
...
2024 02 04    20 40 31.5 +33 55 59   0.02345 0.9710    50.9   128.1    22.0
...
2024 02 19    19 16 59.0 -21 30 31   0.07259 0.9353    41.6   135.4    25.2

M. P. C. Staff               (C) Copyright 2024 MPC           M.P.E.C. 2024-B67





More information about the Iaude mailing list